58P/Jackson-Neujmin 

Epoch 2003 Dec. 27.0 TT = JDT 2453000.5  

T 2004 Jan. 9.99440 TT                                  Nakano

q   1.3886638            (2000.0)            P               Q

n   0.11915944     Peri.  200.43880     +0.99664906     -0.02693193

a   4.0899414      Node   160.61516     +0.04090318     +0.98179949

e   0.6604685      Incl.   13.45603     -0.07083489     +0.18800117

P   8.27

From 321 observations 1970-1996, mean residual 0".76.  Nongravitational

   parameters A1 = +0.30 +/- 0.03, A2 = -0.0151 +/- 0.0002.

Residuals in seconds of arc 

1970/                     950804 118  0.8+  0.8+    950911 900  0.0   0.4-  

700926 370 (4.4-  1.5+)   950804 046  0.2+  0.4+    950911 900  0.1+  0.6-  

700926 370  1.7-  2.8+    950804 046  0.2+  0.4+    950912 900  0.5-  0.9-  

700929 046  1.7+  0.5+    950804 046  0.2+  0.5+    950912 900  0.2+  0.6-  

700930 046  0.4+  1.4+    950804 966  0.4+  0.5+    950915 410  0.9+  1.0-  

701001 693  2.0-  1.0+    950804 605  0.9+  0.4+    950915 410  1.3+  0.4-  

701001 693  1.9-  1.4+    950804 605  0.3+  1.2+    950915 410  0.7+  0.1-  

701005 691  0.9-  0.7+    950804 605  0.5+  0.3+    950917 897  0.3-  0.9-  

701005 691  1.2-  0.7+    950804 966  0.9+  0.4+    950917 897  0.2+  0.1-  

701031 693  0.7+  0.3-    950805 118  0.3+  0.3+    950917 897  0.2+  0.0   

701031 693  0.5+  0.2-    950805 118  0.3+  0.3+    950917 046  0.1-  0.6-  

701125 691  1.4+  1.7-    950806 557  0.0   0.5+    950917 046  0.1-  0.4-  

701125 691  1.3+  1.5-    950806 557  0.1-  0.2+    950917 046  0.3-  0.5-  

1978/                     950806 118  0.2+  0.5+    950918 900  0.2-  1.0-  

781128 675 (0.6- 12.7-)Y  950806 557  0.1-  0.3+    950918 900  0.0   0.7-  

781129 675  2.2+  1.5+ S  950806 557  0.1-  0.4+    950918 360  0.4-  0.9-  

1987/                     950806 118  0.1-  1.1+    950918 360  0.6-  0.8-  

870725 675  2.5+  1.6+    950808 605  0.2-  0.4-    950918 118  0.2+  0.8-  

870725 675  2.0+  1.9+    950808 605  0.1-  1.6+    950919 819  0.3-  0.1+  

870817 691  0.4-  0.1+    950812 046  0.0   0.1-    950919 819  0.7-  0.1+  

870817 691  0.8-  1.6+    950812 046  0.3+  0.5+    950919 819  0.1+  0.3-  

870817 691  0.8-  0.4+    950812 046  0.1-  0.2-    950919 819  0.2-  0.1-  

870818 691  0.1+  0.7+    950814 410  0.3-  0.5+    950920 691  0.5-  0.4-  

870919 691  0.7-  0.9+    950814 410  0.6+  0.0     950920 691  0.9-  0.1-  

870919 691  0.8-  1.4+    950814 410  0.7+  0.6+    950920 691  0.4+  1.0-  

870920 691  1.6-  1.6+    950814 605  0.4-  1.0+    950926 587  0.2-  0.1-  

870920 691  1.7-  1.5+    950814 605  0.7+  0.2-    950926 587  1.2-  0.5-  

870920 691  1.8-  1.0+    950814 605  1.8-  0.5-    950928 801  0.6-  0.8-  

870920 691  1.1-  1.6+    950815 410  0.7+  0.3+    950928 801  0.6-  1.0-  

870920 691  0.8-  1.7+    950815 410  0.2-  0.2+    950929 801  0.1+  1.1-  

1995/                     950815 410  0.6+  0.4+    950929 801  0.7-  1.2-  

950522 691  0.5+  0.2+    950815 897  0.8+  0.7+    951003 900  1.1-  0.7-  

950522 691  0.9-  0.8+    950815 897  0.5-  0.4+    951003 900 (0.6-  2.1-) 

950522 691  0.5+  0.8-    950815 900  0.0   0.3+    951013 360  0.5-  1.7-  

950526 691  1.8-  0.4-    950815 900  0.3+  0.8+    951013 360  0.5-  1.5-  

950526 691  1.5-  1.6-    950815 596  0.4-  0.2+    951014 897  0.5-  0.3+  

950701 118  0.5-  0.5+    950815 596  0.2-  0.1+    951014 897  0.6-  0.7-  

950702 118  0.5-  0.1-    950815 596  0.2-  0.1+    951014 410  0.4-  1.1-  

950707 118  0.5-  0.5+    950815 118  0.2+  0.3+    951014 410  0.7-  1.4-  

950708 557  0.1-  0.7+    950815 118  0.3+  0.5+    951014 410  1.3-  0.2-  

950708 557  0.0   0.8+    950816 411  0.6-  0.2+    951020 360  1.6-  0.2-  

950708 557  0.1+  0.9+    950816 411  0.4+  0.7-    951020 360  1.4-  0.4-  

950709 360  0.0   0.6+    950816 411  0.7-  1.2+    951020 410  1.4-  0.2+  

950709 360  0.2-  0.8+    950816 360  0.3-  0.1+    951020 410  1.6-  0.5+  

950709 360  0.2-  0.8+    950816 360  0.2-  0.1+    951020 410  1.0-  0.2+  

950709 557  0.7-  0.8+    950816 557  0.0   0.2+    951025 360  1.3-  1.2-  

950709 557  0.8-  0.6+    950816 557  0.0   0.3+    951025 360  1.1-  1.3-  

950709 557  0.1-  0.6+    950817 605  0.6-  0.6+    951103 897  0.0   0.7+  

950719 557  0.2-  0.8+    950817 605  0.1-  1.3-    951103 897  0.2+  1.3+  

950719 557  0.1-  0.7+    950817 605  0.3-  0.4-    951105 359  0.5-  1.4+  

950719 557  0.1-  0.7+    950818 410  0.0   0.3-    951105 359  1.4+  1.4+  

950721 557  0.1+  0.7+    950818 410  0.9+  0.1-    951105 359 (2.2+  0.3+) 

950721 557  0.1-  0.9+    950818 410  0.1-  0.7-    951112 900  0.5+  0.7+  

950722 605  0.6-  1.8+    950818 360  0.3-  0.1-    951112 900  0.8-  0.8+  

950722 605  0.8+  0.5+    950818 360  0.2-  0.0     951112 359  0.3-  0.0   

950722 605  0.6+  1.4+    950818 118  0.8-  0.9+    951112 359  1.1-  0.4+  

950722 480  0.9+  0.7+    950819 900  0.1-  0.0     951112 359  0.9-  0.4-  

950722 605  1.1-  1.9+    950819 900  0.0   0.3+    951116 360  0.8-  0.3+  

950723 897  0.3-  0.9+    950819 046  0.0   0.1+    951116 360  0.9-  0.2+  

950723 897  0.2-  0.9+    950819 046  0.0   0.1+    951118 801  1.3-  0.4-  

950723 557  0.2+  0.6+    950819 046  0.1-  0.0     951118 801  0.8-  0.1-  

950723 557  0.2-  0.6+    950820 557  0.4-  0.1-    951118 410  0.4+  1.8+  

950723 557  0.2+  0.7+    950820 557  0.1+  0.4-    951118 410 (0.5+  2.0+) 

950724 897  1.5+  1.7+    950820 900  0.4+  0.4+    951118 410 (1.0+  2.0+) 

950724 897  1.0+  1.5+    950820 900  0.0   0.5+    951118 900  0.5-  1.4+  

950724 897  0.3-  0.6+    950822 801  1.2+  0.3-    951118 900  0.8-  1.0+  

950724 118  0.2+  0.7+    950822 801  0.7+  0.3-    951121 360  0.7+  0.9-  

950724 605 (2.2+  0.2-)   950823 402  0.4+  0.7-    951121 360  0.3+  0.7-  

950724 605  1.4-  0.4+    950823 402  0.5+  0.6-    951122 900  0.1-  0.6-  

950724 605  0.0   0.1-    950823 900  0.4+  0.2-    951125 410  0.6+  0.1+  

950725 605 (2.6+  1.0-)   950823 900  0.6+  0.0     951125 410  0.1+  0.5+  

950725 118  0.2+  0.4+    950823 557  0.2+  0.3-    951125 410  0.8+  1.3+  

950725 605 (6.8-  2.4-)   950823 557  0.3+  0.5-    951208 897  1.0-  0.1-  

950725 605  1.1+  1.0-    950823 557  0.3+  0.6-    951210 360  0.1-  0.0   

950725 557  0.1+  0.3+    950823 557  0.3+  0.5-    951210 360  0.0   0.0   

950725 605 (3.5-  2.3+)   950824 897  0.6+  0.1-    951210 359  1.9-  1.4-  

950725 557  0.1+  0.5+    950824 897  0.5+  0.0     951210 359  0.6-  0.0   

950725 557  0.1+  0.4+    950824 900  0.1-  1.0-    951210 359  1.1-  0.3-  

950726 046  0.0   0.7+    950824 587  0.6+  0.4-    951210 900  0.3+  0.2+  

950726 046  0.1-  0.8+    950824 595  0.6-  1.0-    951218 801  0.4+  0.2+  

950726 046  0.3-  0.8+    950824 587  0.5+  0.0     951218 801  0.6+  0.5-  

950726 118  0.0   0.2+    950824 595  0.0   0.0     951222 410  0.1+  1.2+  

950726 046  0.2-  0.0     950825 357  1.6+  0.0     951222 410  0.5+  1.6+  

950726 046  0.5-  0.4-    950825 357  0.4+  0.5-    951222 410  0.8-  0.6+  

950726 046  0.8-  0.3-    950825 357  1.1+  0.4-    951223 801  1.6+  0.4+  

950727 360  0.2+  0.2+    950825 587  0.2+  0.9-    951223 801  0.7+  0.3+  

950727 360  0.1+  0.3+    950825 587  0.4+  0.1-    951224 897 (1.3-  2.1+) 

950727 360  0.1-  0.3+    950826 360  0.2+  0.6-    951224 897 (0.1-  2.6+) 

950729 118  0.5+  0.7+    950826 360  0.3+  0.5-    1996/                   

950730 118  0.2-  0.0     950827 411  1.2+  0.5-    960110 764  0.4+  0.5+  

950730 557  0.1+  0.1+    950827 411  0.7+  0.7-    960112 360  1.3+  0.8+  

950730 605 (3.6+  1.0-)   950827 411  1.0+  0.3-    960112 360  1.2+  0.9+  

950730 557  0.1+  0.3+    950827 357  0.5+  0.2-    960112 410  1.4+  0.9+  

950730 557  0.1+  0.3+    950827 357  1.0+  0.7-    960112 410  1.4+  1.2+  

950730 605 (2.9+  0.0 )   950828 900  0.8-  0.4-    960112 410  1.2+  1.8+  

950730 605  0.5-  0.5-    950828 900  0.3-  0.3-    960113 118  0.4+  0.5+  

950730 605  0.1-  0.5-    950829 801  1.5+  0.1-    960114 046  0.7+  1.5+  

950731 360  0.2+  0.3+    950829 801  0.4-  0.3-    960114 046  0.5+  1.4+  

950731 360  0.2+  0.2+    950829 367  0.1+  0.0     960114 046  0.7+  1.3+  

950731 118  0.4+  0.3+    950829 367  0.2+  0.8-    960114 046  0.1+  1.2+  

950731 557  0.1+  0.5+    950829 367  0.2+  1.0-    960121 764  0.6+  1.0-  

950731 557  0.2+  0.4+    950901 410  0.1+  0.1-    960122 764  0.7-  0.1-  

950731 557  0.2+  0.2+    950901 410  0.1+  0.1+    960122 605 (2.8+  0.2+) 

950731 605  0.3-  0.4+    950901 410  1.0+  0.2-    960122 605  1.2-  0.1-  

950731 605  0.4-  0.1-    950901 897  0.4-  0.6-    960126 764 (1.3+  3.0+) 

950731 605  0.8+  0.5+    950901 897  0.3+  0.4-    960129 819 (1.4+  3.0+) 

950801 118  0.3+  0.5+    950901 900  0.1-  0.7-    960129 819 (2.2+  3.1+) 

950801 360  0.1+  0.1+    950901 900  0.8-  1.0-    960129 819 (3.0+  1.2+) 

950801 360  0.1+  0.1+    950902 691  1.2-  0.2-    960129 819 (1.9+  2.5+) 

950801 605  0.5-  0.3-    950902 691  0.7-  0.1-    960131 118  1.3+  1.2+  

950801 605  0.5+  0.9+    950902 691  0.6-  0.0     960131 118  1.9+  1.0+  

950802 691  0.7+  0.1-    950902 494  0.5+  1.0-    960131 046  1.9+  1.8+  

950802 691  0.5+  0.2-    950902 494  0.3+  0.7-    960131 046 (2.2+  1.7+) 

950803 046  0.1+  0.2+    950904 046  0.0   0.8-    960131 046  1.9+  1.1+  

950803 046  0.2+  0.3+    950904 046  0.6-  0.3-    960217 801  0.3-  0.9+  

950803 046  0.3+  0.2+    950904 046  0.4-  0.4-    960218 801 (3.0+  0.5+) 





    D/1978 R1 (Haneda-Campos) 

Epoch 2003 Dec. 27.0 TT = JDT 2453000.5  

T 2004 Jan. 10.27784 TT                                 Nakano

q   1.2743098            (2000.0)            P               Q

n   0.15379511     Peri.  307.10681     +0.96884644     -0.23469722

a   3.4501743      Node    66.58839     +0.24563920     +0.86989857

